Location: Pinawa
(50.1500°N, 95.8830°W)
Time: 02:09:28
(UTC-05:00)

Amateur Radio Satellites - All Passes

Search period start: 22 August 2017 01:39
Search period end: 23 August 2017 01:39
Location: Pinawa, 50.1500°N, 95.8830°W

Satellite Date Start Highest point End Downlink Frequencies (MHz)
Time Altitude Azimuth
DX 1 22 Aug 01:43:53 01:48:16 83° 74° (ENE) 01:52:41 434.975-435.025
SPROUT 22 Aug 01:46:10 01:49:46 26° 266° (W) 01:53:24 437.525
VELOX 1 22 Aug 01:46:32 01:50:34 33° 264° (W) 01:54:37 145.980
Gurwin Techsat 1B 22 Aug 01:50:18 01:52:31 12° 85° (E) 01:54:44 435.225
MOZHAYETS 4 22 Aug 01:53:10 01:53:43 10° 52° (NE) 01:54:16
50 SAT 22 Aug 01:58:14 02:01:31 45° 260° (W) 02:04:50 437.505
Oscar 19 22 Aug 02:05:54 02:10:09 25° 92° (E) 02:14:22 437.125/150
NANOSAT C BR1 22 Aug 02:14:46 02:18:43 41° 291° (WNW) 02:22:40 145.865
BEESAT 22 Aug 02:16:14 02:19:41 20° 58° (ENE) 02:23:09 436.000
YUBILEINY 22 Aug 02:16:41 02:24:24 33° 62° (ENE) 02:32:03 435.215
POLYITAN 1 22 Aug 02:20:42 02:24:29 34° 293° (WNW) 02:28:17 437.675
SO-50 22 Aug 02:22:53 02:26:21 21° 334° (NNW) 02:29:49 436.795
M-CUBED/EXP-1 PRIME 22 Aug 02:30:58 02:34:44 27° 304° (NW) 02:38:17 437.505
QB50P2 22 Aug 02:36:15 02:39:36 23° 297° (WNW) 02:42:57 145.880/145.840
EO-79 22 Aug 02:36:28 02:39:53 25° 297° (WNW) 02:43:19 145.935-145.965
ITUPSAT 1 22 Aug 02:50:16 02:54:36 36° 65° (ENE) 02:58:58 437.325
NO-84 22 Aug 02:55:13 02:58:04 73° 151° (SSE) 03:00:55 435.350 FM
UKube-1 22 Aug 02:56:39 03:00:26 29° 264° (W) 03:04:15 .
BUGSAT 1 22 Aug 02:59:58 03:03:52 50° 290° (WNW) 03:07:45 437.445
PCSat 22 Aug 03:00:14 03:03:21 15° 345° (NNW) 03:06:30 145.827
DUCHIFAT 1 22 Aug 03:05:33 03:08:18 17° 300° (WNW) 03:11:01 145.980
DX 1 22 Aug 03:23:05 03:25:03 13° 272° (W) 03:27:02 434.975-435.025
MOZHAYETS 4 22 Aug 03:25:28 03:29:57 60° 71° (ENE) 03:34:28
Gurwin Techsat 1B 22 Aug 03:28:01 03:33:23 77° 104° (ESE) 03:38:42 435.225
ITAMSAT 1 22 Aug 03:30:17 03:31:36 11° 84° (E) 03:32:55 435.822/435.867
KKS-1 22 Aug 03:32:08 03:32:48 10° 52° (NE) 03:33:28 437.445
Oscar 19 22 Aug 03:44:42 03:49:48 56° 291° (WNW) 03:54:53 437.125/150
CUBESAT XI-V 22 Aug 03:49:19 03:53:12 27° 63° (ENE) 03:57:07 437.345
BEESAT 22 Aug 03:52:18 03:57:02 66° 258° (WSW) 04:01:47 436.000
SO-50 22 Aug 04:06:17 04:08:27 13° 359° (N) 04:10:38 436.795
YUBILEINY 22 Aug 04:13:20 04:21:59 70° 266° (W) 04:30:35 435.215
ITUPSAT 1 22 Aug 04:28:11 04:32:28 33° 264° (W) 04:36:46 437.325
NO-84 22 Aug 04:33:00 04:35:38 33° 350° (N) 04:38:18 435.350 FM
AO-7 22 Aug 04:40:54 04:48:58 49° 101° (E) 04:56:55 .
PCSat 22 Aug 04:46:09 04:49:06 14° 12° (NNE) 04:52:02 145.827
KKS-1 22 Aug 05:04:03 05:08:28 62° 71° (ENE) 05:12:54 437.445
MOZHAYETS 4 22 Aug 05:04:20 05:07:30 19° 270° (W) 05:10:43
ITAMSAT 1 22 Aug 05:06:50 05:12:02 71° 104° (ESE) 05:17:10 435.822/435.867
Gurwin Techsat 1B 22 Aug 05:08:55 05:12:46 21° 304° (NW) 05:16:38 435.225
CUBESAT XI-V 22 Aug 05:25:53 05:30:21 45° 261° (W) 05:34:54 437.345
Oscar 19 22 Aug 05:26:25 05:28:03 11° 311° (NW) 05:29:42 437.125/150
BEESAT 3 22 Aug 05:33:06 05:36:43 33° 120° (ESE) 05:40:24 437.485
STARS 22 Aug 05:38:53 05:43:13 60° 71° (ENE) 05:47:34 437.465
SO-50 22 Aug 05:47:16 05:50:37 20° 24° (NNE) 05:53:58 436.795
DOVE 4 22 Aug 05:47:46 05:50:49 17° 88° (E) 05:53:43 437.250
BEESAT 2 22 Aug 05:50:53 05:53:45 19° 114° (ESE) 05:56:38 435.950
AO-85 22 Aug 06:10:40 06:14:24 45° 123° (ESE) 06:18:11 145.980
NO-84 22 Aug 06:10:46 06:13:28 35° 12° (NNE) 06:16:15 435.350 FM
YUBILEINY 22 Aug 06:12:08 06:17:06 17° 289° (WNW) 06:22:04 435.215
PCSat 22 Aug 06:29:27 06:34:16 31° 37° (NE) 06:39:04 145.827
STRAND 1 22 Aug 06:32:11 06:36:09 23° 58° (ENE) 06:40:06 437.568
AO-7 22 Aug 06:33:51 06:41:46 50° 302° (WNW) 06:49:38 .
KAITUO 1B 22 Aug 06:40:03 06:42:04 14° 89° (E) 06:44:04 145.475/437.950
KKS-1 22 Aug 06:42:24 06:45:26 18° 270° (W) 06:48:28 437.445
ITAMSAT 1 22 Aug 06:47:08 06:51:01 22° 303° (WNW) 06:54:52 435.822/435.867
LilacSat-2 22 Aug 07:06:26 07:10:02 35° 97° (E) 07:13:37 437.200
FO-29 22 Aug 07:08:03 07:09:34 11° 43° (NE) 07:11:03 435.910
XW-2D 22 Aug 07:08:52 07:12:26 36° 97° (E) 07:16:00 145.860 - 145.880
NUDT-PHONESAT 22 Aug 07:09:43 07:12:56 26° 95° (E) 07:16:09 437.300
BEESAT 3 22 Aug 07:10:29 07:14:16 38° 320° (NW) 07:18:05 437.485
STARS 22 Aug 07:16:58 07:19:57 18° 269° (W) 07:22:56 437.465
XW-2B 22 Aug 07:19:52 07:23:35 45° 99° (E) 07:27:17 145.730 - 145.750
DOVE 4 22 Aug 07:24:26 07:29:01 61° 288° (WNW) 07:33:18 437.250
CUTE-I 22 Aug 07:25:40 07:30:45 44° 98° (E) 07:35:48 437.470
BEESAT 2 22 Aug 07:27:06 07:31:05 63° 313° (NW) 07:35:09 435.950
SO-50 22 Aug 07:27:21 07:31:53 65° 46° (NE) 07:36:27 436.795
XW-2C 22 Aug 07:38:58 07:42:49 75° 103° (ESE) 07:46:40 145.795 - 145.815
NO-84 22 Aug 07:48:03 07:50:59 66° 211° (SSW) 07:54:05 435.350 FM
XW-2F 22 Aug 07:49:55 07:53:47 87° 277° (W) 07:57:37 145.980 - 146.000
AO-85 22 Aug 07:51:30 07:54:57 28° 324° (NW) 07:58:27 145.980
SEEDS 22 Aug 07:54:48 07:57:28 16° 89° (E) 08:00:07 437.485
STRAND 1 22 Aug 08:09:51 08:14:55 64° 258° (WSW) 08:20:01 437.568
KAITUO 1B 22 Aug 08:12:40 08:16:26 60° 287° (WNW) 08:20:11 145.475/437.950
PCSat 22 Aug 08:12:42 08:18:07 67° 239° (WSW) 08:23:29 145.827
AO-7 22 Aug 08:27:47 08:32:41 17° 326° (NNW) 08:37:35 .
HO-68 22 Aug 08:31:06 08:38:06 53° 101° (E) 08:45:04 435.675
AAUSAT CUBESAT 2 22 Aug 08:35:32 08:38:36 19° 91° (E) 08:41:39 437.432
LilacSat-2 22 Aug 08:41:00 08:44:10 24° 295° (WNW) 08:47:20 437.200
XW-2D 22 Aug 08:43:22 08:46:28 23° 295° (WNW) 08:49:33 145.860 - 145.880
NUDT-PHONESAT 22 Aug 08:43:32 08:46:49 29° 293° (WNW) 08:50:06 437.300
CUTE 1.7 + AOD 2 22 Aug 08:44:20 08:48:40 72° 103° (ESE) 08:52:57 437.475
FO-29 22 Aug 08:46:23 08:53:08 41° 64° (ENE) 08:59:14 435.910
TIGRISAT 22 Aug 08:49:24 08:51:15 13° 56° (NE) 08:53:04 435.000
BEESAT 3 22 Aug 08:50:53 08:52:54 13° 342° (NNW) 08:54:57 437.485
XW-2B 22 Aug 08:54:43 08:57:30 19° 297° (WNW) 09:00:17 145.730 - 145.750
UWE-3 22 Aug 09:00:28 09:04:23 35° 97° (E) 09:08:22 435.000/436.395/437.385
DOVE 4 22 Aug 09:05:08 09:05:41 10° 309° (NW) 09:06:15 437.250
Oscar 11 22 Aug 09:05:10 09:07:59 17° 89° (E) 09:10:47 .
CUTE-I 22 Aug 09:05:58 09:10:42 33° 298° (WNW) 09:15:24 437.470
BEESAT 2 22 Aug 09:06:55 09:09:37 17° 335° (NNW) 09:12:21 435.950
SO-50 22 Aug 09:08:28 09:11:58 22° 245° (WSW) 09:15:29 436.795
CUBEBUG 2 22 Aug 09:10:49 09:15:01 73° 103° (ESE) 09:19:18 437.445
XW-2C 22 Aug 09:14:39 09:16:29 13° 301° (WNW) 09:18:19 145.795 - 145.815
Tancredo 1 22 Aug 09:18:14 09:19:50 14° 140° (SE) 09:21:26 437.200
XW-2A 22 Aug 09:21:22 09:24:47 77° 284° (WNW) 09:28:10 145.665 - 145.685
XW-2F 22 Aug 09:26:14 09:27:16 11° 303° (WNW) 09:28:17 145.980 - 146.000
PRISM 22 Aug 09:26:57 09:30:06 21° 61° (ENE) 09:33:14 437.425
NO-84 22 Aug 09:27:01 09:27:55 11° 228° (SW) 09:28:50 435.350 FM
SEEDS 22 Aug 09:29:20 09:33:34 63° 287° (WNW) 09:37:46 437.485
O/OREOS (USA 219) 22 Aug 09:32:07 09:35:44 25° 104° (ESE) 09:39:21 437.305
AO-85 22 Aug 09:35:09 09:36:39 12° 348° (NNW) 09:38:08 145.980
ZACube-1 22 Aug 09:36:39 09:40:48 46° 99° (E) 09:45:00 437.345
RS-15 22 Aug 09:39:15 09:45:18 15° 92° (E) 09:51:20 29.354- 29.394
UNISAT 6 22 Aug 09:48:35 09:52:40 43° 69° (ENE) 09:56:43 437.425
AO-73 22 Aug 09:56:50 10:01:07 67° 102° (ESE) 10:05:28 145.935
PCSat 22 Aug 09:58:35 10:00:30 12° 258° (WSW) 10:02:24 145.827
AAUSAT CUBESAT 2 22 Aug 10:10:16 10:14:20 49° 289° (WNW) 10:18:22 437.432
M-CUBED/EXP-1 PRIME 22 Aug 10:12:37 10:15:54 20° 52° (NE) 10:19:14 437.505
HO-68 22 Aug 10:19:08 10:25:41 40° 301° (WNW) 10:32:14 435.675
CUTE 1.7 + AOD 2 22 Aug 10:21:19 10:23:59 16° 301° (WNW) 10:26:38 437.475
TIGRISAT 22 Aug 10:22:58 10:27:17 86° 75° (ENE) 10:31:34 435.000
Max Valier Satellite 22 Aug 10:28:55 10:31:48 21° 93° (E) 10:34:41 145.860
FO-29 22 Aug 10:30:54 10:38:06 50° 261° (W) 10:44:36 435.910
BEESAT 3 22 Aug 10:31:24 10:32:12 10° 6° (N) 10:33:00 437.485
UWE-3 22 Aug 10:37:08 10:40:46 28° 294° (WNW) 10:44:27 435.000/436.395/437.385
Oscar 11 22 Aug 10:40:13 10:44:32 63° 288° (WNW) 10:48:50 .
AIST 2D 22 Aug 10:43:25 10:45:54 18° 64° (ENE) 10:48:23 435.315
BEESAT 2 22 Aug 10:48:21 10:49:00 10° 359° (N) 10:49:39 435.950
CUBEBUG 2 22 Aug 10:48:41 10:51:09 15° 301° (WNW) 10:53:38 437.445
ISS 22 Aug 10:51:39 10:54:29 27° 146° (SE) 10:57:20 437.550
Tancredo 1 22 Aug 10:51:40 10:54:33 63° 158° (SSE) 10:57:26 437.200
DUCHIFAT 1 22 Aug 10:52:15 10:53:50 12° 56° (NE) 10:55:26 145.980
nSIGHT-1 22 Aug 10:57:48 11:00:44 31° 148° (SSE) 11:03:40 .
PRISM 22 Aug 11:01:01 11:05:04 49° 260° (W) 11:09:09 437.425
DELFI C3 22 Aug 11:01:21 11:05:19 61° 101° (E) 11:09:14 145.870
O/OREOS (USA 219) 22 Aug 11:10:35 11:14:53 46° 304° (WNW) 11:19:15 437.305
ZACube-1 22 Aug 11:13:29 11:16:50 23° 297° (WNW) 11:20:13 437.345
AO-85 22 Aug 11:17:05 11:18:49 12° 14° (NNE) 11:20:35 145.980
EO-88 22 Aug 11:18:58 11:22:37 58° 101° (E) 11:26:15 145.990 - 145.960
UNISAT 6 22 Aug 11:26:09 11:29:35 23° 267° (W) 11:33:00 437.425
AO-73 22 Aug 11:34:09 11:36:55 17° 300° (WNW) 11:39:43 145.935
NANOSAT C BR1 22 Aug 11:35:38 11:39:19 31° 66° (ENE) 11:43:02 145.865
POLYITAN 1 22 Aug 11:41:38 11:45:31 39° 68° (ENE) 11:49:26 437.675
RS-15 22 Aug 11:43:03 11:54:52 58° 116° (ESE) 12:06:44 29.354- 29.394
M-CUBED/EXP-1 PRIME 22 Aug 11:45:12 11:49:47 77° 251° (WSW) 11:54:30 437.505
Oscar 19 22 Aug 11:52:12 11:53:45 11° 49° (NE) 11:55:19 437.125/150
ESTCUBE 1 22 Aug 11:56:03 11:59:15 18° 90° (E) 12:02:25 437.505/2401.250
QB50P2 22 Aug 11:56:36 12:00:44 59° 71° (ENE) 12:04:53 145.880/145.840
EO-79 22 Aug 11:56:44 12:00:50 54° 71° (ENE) 12:04:57 145.935-145.965
Max Valier Satellite 22 Aug 12:02:20 12:05:45 35° 291° (WNW) 12:09:10 145.860
TIGRISAT 22 Aug 12:03:04 12:04:36 12° 273° (W) 12:06:07 435.000
BEESAT 3 22 Aug 12:08:10 12:11:15 20° 30° (NNE) 12:14:18 437.485
AO-7 22 Aug 12:08:33 12:11:01 12° 22° (NNE) 12:13:29 .
HO-68 22 Aug 12:09:05 12:11:35 12° 324° (NW) 12:14:03 435.675
AIST 2D 22 Aug 12:15:35 12:18:51 38° 262° (W) 12:22:11 435.315
BUGSAT 1 22 Aug 12:19:14 12:22:31 24° 64° (ENE) 12:25:47 437.445
DUCHIFAT 1 22 Aug 12:24:40 12:28:50 83° 74° (ENE) 12:33:02 145.980
BEESAT 2 22 Aug 12:25:49 12:28:23 16° 23° (NNE) 12:30:56 435.950
Tancredo 1 22 Aug 12:26:53 12:29:47 62° 358° (N) 12:32:40 437.200
ISS 22 Aug 12:27:26 12:30:43 88° 343° (NNW) 12:34:01 437.550
nSIGHT-1 22 Aug 12:33:39 12:36:56 82° 347° (NNW) 12:40:13 .
DELFI C3 22 Aug 12:37:08 12:39:39 16° 300° (WNW) 12:42:08 145.870
LO-87 22 Aug 12:43:33 12:47:07 80° 104° (ESE) 12:50:39 145.935 - 145.965
EO-88 22 Aug 12:53:46 12:55:52 15° 299° (WNW) 12:57:59 145.990 - 145.960
O/OREOS (USA 219) 22 Aug 12:54:27 12:55:29 11° 326° (NW) 12:56:32 437.305
AO-85 22 Aug 12:56:43 13:00:27 31° 37° (NE) 13:04:23 145.980
NANOSAT C BR1 22 Aug 13:11:18 13:15:01 31° 264° (W) 13:18:46 145.865
Gurwin Techsat 1B 22 Aug 13:14:49 13:19:30 33° 62° (ENE) 13:24:13 435.225
POLYITAN 1 22 Aug 13:17:59 13:21:26 24° 266° (W) 13:24:54 437.675
M-CUBED/EXP-1 PRIME 22 Aug 13:23:28 13:24:56 11° 269° (W) 13:26:25 437.505
SPROUT 22 Aug 13:26:16 13:30:13 36° 97° (E) 13:34:08 437.525
Oscar 19 22 Aug 13:26:59 13:32:01 55° 68° (ENE) 13:37:05 437.125/150
DX 1 22 Aug 13:30:24 13:30:52 10° 86° (E) 13:31:20 434.975-435.025
VELOX 1 22 Aug 13:31:22 13:35:23 33° 96° (E) 13:39:23 145.980
ESTCUBE 1 22 Aug 13:31:56 13:36:27 60° 289° (WNW) 13:40:55 437.505/2401.250
EO-79 22 Aug 13:34:03 13:36:55 18° 269° (W) 13:39:50 145.935-145.965
QB50P2 22 Aug 13:34:11 13:36:55 17° 270° (W) 13:39:37 145.880/145.840
BEESAT 3 22 Aug 13:45:19 13:49:22 88° 230° (SW) 13:53:20 437.485
BUGSAT 1 22 Aug 13:53:54 13:57:43 39° 262° (W) 14:01:31 437.445
AO-7 22 Aug 13:54:14 14:01:08 30° 47° (NE) 14:08:01 .
RS-15 22 Aug 13:55:16 14:07:31 63° 323° (NW) 14:19:42 29.354- 29.394
Tancredo 1 22 Aug 14:02:08 14:05:03 84° 197° (SSW) 14:07:57 437.200
BEESAT 2 22 Aug 14:02:58 14:07:00 54° 45° (NE) 14:10:58 435.950
DUCHIFAT 1 22 Aug 14:03:35 14:05:05 12° 273° (W) 14:06:36 145.980
ISS 22 Aug 14:04:04 14:07:20 67° 5° (N) 14:10:36 437.550
nSIGHT-1 22 Aug 14:10:12 14:13:27 68° 7° (N) 14:16:42 .
LO-87 22 Aug 14:19:05 14:19:59 11° 302° (WNW) 14:20:53 145.935 - 145.965
AO-85 22 Aug 14:36:54 14:41:01 50° 236° (SW) 14:45:26 145.980
UKube-1 22 Aug 14:38:22 14:42:15 32° 96° (E) 14:46:06 .
50 SAT 22 Aug 14:47:30 14:50:55 87° 105° (ESE) 14:54:16 437.505
ITAMSAT 1 22 Aug 14:51:06 14:55:31 29° 61° (ENE) 14:59:59 435.822/435.867
Gurwin Techsat 1B 22 Aug 14:54:15 14:59:20 45° 262° (W) 15:04:27 435.225
SPROUT 22 Aug 15:02:23 15:06:00 27° 296° (WNW) 15:09:36 437.525
DX 1 22 Aug 15:03:24 15:07:47 81° 103° (ESE) 15:12:07 434.975-435.025
Oscar 19 22 Aug 15:07:30 15:11:40 24° 268° (W) 15:15:52 437.125/150
VELOX 1 22 Aug 15:07:52 15:11:49 32° 295° (WNW) 15:15:44 145.980
ESTCUBE 1 22 Aug 15:11:42 15:12:19 10° 308° (NW) 15:12:58 437.505/2401.250
MOZHAYETS 4 22 Aug 15:18:46 15:19:13 10° 84° (E) 15:19:40
BEESAT 3 22 Aug 15:24:41 15:26:17 12° 250° (WSW) 15:27:51 437.485
YUBILEINY 22 Aug 15:24:43 15:31:59 31° 80° (E) 15:39:14 435.215
Tancredo 1 22 Aug 15:37:41 15:39:55 20° 216° (SW) 15:42:09 437.200
ISS 22 Aug 15:40:36 15:43:50 55° 204° (SSW) 15:47:02 437.550
BEESAT 2 22 Aug 15:41:17 15:44:27 22° 244° (WSW) 15:47:35 435.950
AO-7 22 Aug 15:44:39 15:53:03 88° 252° (WSW) 16:01:29 .
nSIGHT-1 22 Aug 15:46:38 15:49:48 49° 207° (SSW) 15:52:57 .
BEESAT 22 Aug 15:48:06 15:51:51 22° 92° (E) 15:55:34 436.000
RS-15 22 Aug 16:11:21 16:22:51 41° 355° (N) 16:34:04 29.354- 29.394
UKube-1 22 Aug 16:14:25 16:18:16 32° 295° (WNW) 16:22:05 .
ITUPSAT 1 22 Aug 16:23:11 16:27:46 44° 99° (E) 16:32:20 437.325
ITAMSAT 1 22 Aug 16:29:45 16:34:47 49° 260° (W) 16:39:51 435.822/435.867
DX 1 22 Aug 16:40:53 16:43:23 15° 304° (WNW) 16:45:53 434.975-435.025
MOZHAYETS 4 22 Aug 16:52:32 16:57:11 75° 103° (ESE) 17:01:49
DOVE 4 22 Aug 16:56:17 17:00:57 34° 65° (ENE) 17:05:29 437.250
XW-2F 22 Aug 17:04:19 17:05:01 10° 57° (ENE) 17:05:44 145.980 - 146.000
CUTE-I 22 Aug 17:14:04 17:17:58 21° 56° (NE) 17:21:52 437.470
CUBESAT XI-V 22 Aug 17:17:31 17:21:48 32° 95° (E) 17:26:01 437.345
ISS 22 Aug 17:18:10 17:19:45 13° 223° (SW) 17:21:20 437.550
YUBILEINY 22 Aug 17:19:17 17:28:04 73° 283° (WNW) 17:36:51 435.215
HO-68 22 Aug 17:20:22 17:24:47 18° 44° (NE) 17:29:13 435.675
nSIGHT-1 22 Aug 17:24:38 17:25:34 11° 224° (SW) 17:26:31 .
KAITUO 1B 22 Aug 17:24:50 17:26:46 14° 60° (ENE) 17:28:42 145.475/437.950
BEESAT 22 Aug 17:25:17 17:29:56 53° 291° (WNW) 17:34:34 436.000
AO-7 22 Aug 17:40:39 17:46:58 23° 271° (W) 17:53:18 .
LilacSat-2 22 Aug 17:52:35 17:56:00 33° 68° (ENE) 17:59:29 437.200
NUDT-PHONESAT 22 Aug 17:53:20 17:56:20 24° 65° (ENE) 17:59:22 437.300
XW-2D 22 Aug 17:54:20 17:57:44 33° 68° (ENE) 18:01:11 145.860 - 145.880
O/OREOS (USA 219) 22 Aug 17:57:44 18:01:03 19° 44° (NE) 18:04:22 437.305
ITUPSAT 1 22 Aug 18:01:21 18:05:26 29° 298° (WNW) 18:09:30 437.325
XW-2B 22 Aug 18:05:16 18:08:49 42° 70° (ENE) 18:12:26 145.730 - 145.750
CUTE 1.7 + AOD 2 22 Aug 18:08:07 18:10:04 13° 57° (ENE) 18:12:03 437.475
XW-2C 22 Aug 18:24:15 18:27:58 69° 75° (ENE) 18:31:46 145.795 - 145.815
KKS-1 22 Aug 18:26:37 18:31:03 64° 103° (ESE) 18:35:25 437.445
RS-15 22 Aug 18:26:42 18:38:39 52° 28° (NNE) 18:50:03 29.354- 29.394
MOZHAYETS 4 22 Aug 18:30:48 18:33:49 17° 302° (WNW) 18:36:49
DOVE 4 22 Aug 18:33:34 18:38:31 42° 263° (W) 18:43:22 437.250
XW-2F 22 Aug 18:34:44 18:38:29 86° 76° (ENE) 18:42:18 145.980 - 146.000
CUBEBUG 2 22 Aug 18:39:06 18:41:19 14° 58° (ENE) 18:43:31 437.445
SEEDS 22 Aug 18:50:40 18:53:49 21° 62° (ENE) 18:56:59 437.485
CUTE-I 22 Aug 18:52:06 18:57:28 77° 256° (WSW) 19:02:51 437.470
CUBESAT XI-V 22 Aug 18:54:52 18:59:12 36° 294° (WNW) 19:03:29 437.345
KAITUO 1B 22 Aug 18:56:35 19:00:17 67° 259° (W) 19:04:03 145.475/437.950
STARS 22 Aug 18:59:36 19:03:56 60° 102° (ESE) 19:08:14 437.465
HO-68 22 Aug 19:04:12 19:11:14 62° 65° (ENE) 19:18:16 435.675
YUBILEINY 22 Aug 19:20:30 19:26:42 21° 308° (NW) 19:32:54 435.215
AO-73 22 Aug 19:23:26 19:25:08 12° 56° (ENE) 19:26:50 145.935
NUDT-PHONESAT 22 Aug 19:26:48 19:30:07 31° 264° (W) 19:33:28 437.300
LilacSat-2 22 Aug 19:27:16 19:30:21 24° 267° (W) 19:33:29 437.200
XW-2D 22 Aug 19:28:57 19:32:00 23° 266° (W) 19:35:05 145.860 - 145.880
AAUSAT CUBESAT 2 22 Aug 19:29:49 19:33:10 24° 64° (ENE) 19:36:32 437.432
O/OREOS (USA 219) 22 Aug 19:36:28 19:41:01 77° 246° (WSW) 19:45:34 437.305
XW-2B 22 Aug 19:40:30 19:43:13 19° 268° (W) 19:45:57 145.730 - 145.750
CUTE 1.7 + AOD 2 22 Aug 19:40:59 19:45:14 89° 75° (ENE) 19:49:32 437.475
XW-2A 22 Aug 19:56:33 19:59:52 71° 74° (ENE) 20:03:13 145.665 - 145.685
XW-2C 22 Aug 20:01:12 20:02:39 12° 273° (W) 20:04:06 145.795 - 145.815
UWE-3 22 Aug 20:01:44 20:05:45 48° 71° (ENE) 20:09:45 435.000/436.395/437.385
KKS-1 22 Aug 20:04:04 20:07:10 19° 301° (WNW) 20:10:15 437.445
Oscar 11 22 Aug 20:04:07 20:07:31 23° 62° (ENE) 20:10:56 .
CUBEBUG 2 22 Aug 20:13:10 20:17:24 79° 257° (WSW) 20:21:36 437.445
STRAND 1 22 Aug 20:15:44 20:20:16 31° 95° (E) 20:24:45 437.568
SEEDS 22 Aug 20:25:04 20:29:10 51° 260° (W) 20:33:20 437.485
CUTE-I 22 Aug 20:36:09 20:38:25 13° 275° (W) 20:40:42 437.470
ZACube-1 22 Aug 20:36:42 20:40:48 63° 73° (ENE) 20:44:55 437.345
STARS 22 Aug 20:36:47 20:39:53 19° 301° (WNW) 20:42:59 437.465
RS-15 22 Aug 20:39:59 20:52:07 76° 237° (WSW) 21:03:34 29.354- 29.394
HO-68 22 Aug 20:53:06 20:59:23 33° 266° (W) 21:05:43 435.675
AO-73 22 Aug 20:56:36 21:00:43 89° 75° (ENE) 21:04:54 145.935
AAUSAT CUBESAT 2 22 Aug 21:04:28 21:08:25 41° 263° (W) 21:12:25 437.432
Max Valier Satellite 22 Aug 21:12:23 21:15:03 20° 64° (ENE) 21:17:45 145.860
O/OREOS (USA 219) 22 Aug 21:18:54 21:19:35 10° 264° (W) 21:20:18 437.305
CUTE 1.7 + AOD 2 22 Aug 21:20:23 21:21:43 11° 274° (W) 21:23:04 437.475
FO-29 22 Aug 21:36:57 21:40:35 17° 86° (E) 21:44:02 435.910
Oscar 11 22 Aug 21:39:15 21:43:24 46° 261° (W) 21:47:36 .
UWE-3 22 Aug 21:39:29 21:42:30 19° 269° (W) 21:45:30 435.000/436.395/437.385
DELFI C3 22 Aug 21:50:34 21:54:32 65° 73° (ENE) 21:58:32 145.870
STRAND 1 22 Aug 21:54:45 21:59:34 43° 294° (WNW) 22:04:21 437.568
EO-88 22 Aug 22:00:44 22:04:15 49° 72° (ENE) 22:07:48 145.990 - 145.960
TIGRISAT 22 Aug 22:11:09 22:13:03 13° 87° (E) 22:14:59 435.000
ZACube-1 22 Aug 22:15:07 22:17:31 15° 271° (W) 22:19:57 437.345
AO-73 22 Aug 22:36:48 22:37:37 10° 274° (W) 22:38:26 145.935
PRISM 22 Aug 22:38:29 22:41:06 16° 90° (E) 22:43:43 437.425
Max Valier Satellite 22 Aug 22:45:13 22:48:39 39° 262° (W) 22:52:08 145.860
RS-15 22 Aug 22:53:56 23:02:26 24° 262° (W) 23:10:40 29.354- 29.394
PCSat 22 Aug 22:58:44 23:03:49 43° 116° (ESE) 23:08:57 145.827
ESTCUBE 1 22 Aug 22:59:36 23:03:30 29° 64° (ENE) 23:07:26 437.505/2401.250
UNISAT 6 22 Aug 23:11:33 23:15:46 51° 100° (E) 23:20:03 437.425
FO-29 22 Aug 23:20:51 23:26:33 77° 288° (WNW) 23:31:47 435.910
LO-87 22 Aug 23:23:31 23:27:04 64° 73° (ENE) 23:30:38 145.935 - 145.965
SO-50 22 Aug 23:25:59 23:30:09 38° 121° (ESE) 23:34:21 436.795
DELFI C3 22 Aug 23:27:34 23:29:44 14° 271° (W) 23:31:54 145.870
EO-88 22 Aug 23:36:02 23:38:13 15° 270° (W) 23:40:24 145.990 - 145.960
AIST 2D 22 Aug 23:37:16 23:38:40 12° 88° (E) 23:40:04 435.315
TIGRISAT 22 Aug 23:46:00 23:50:19 81° 285° (WNW) 23:54:41 435.000
PRISM 23 Aug 00:12:41 00:16:45 58° 289° (WNW) 00:20:48 437.425
SPROUT 23 Aug 00:23:36 00:27:42 49° 70° (ENE) 00:31:49 437.525
DX 1 23 Aug 00:28:39 00:31:39 18° 59° (ENE) 00:34:39 434.975-435.025
VELOX 1 23 Aug 00:32:34 00:36:54 52° 69° (ENE) 00:41:14 145.980
ESTCUBE 1 23 Aug 00:35:59 00:40:12 38° 263° (W) 00:44:28 437.505/2401.250
PCSat 23 Aug 00:42:06 00:47:15 42° 317° (NW) 00:52:27 145.827
UNISAT 6 23 Aug 00:48:56 00:52:13 21° 298° (WNW) 00:55:31 437.425
NANOSAT C BR1 23 Aug 00:50:23 00:54:05 29° 95° (E) 00:57:45 145.865
M-CUBED/EXP-1 PRIME 23 Aug 00:54:07 00:58:15 38° 102° (ESE) 01:02:05 437.505
POLYITAN 1 23 Aug 00:57:05 01:01:01 37° 97° (E) 01:04:57 437.675
LO-87 23 Aug 00:59:37 01:00:54 12° 272° (W) 01:02:12 145.935 - 145.965
SO-50 23 Aug 01:06:22 01:10:37 40° 321° (NW) 01:14:55 436.795
FO-29 23 Aug 01:07:26 01:10:38 15° 311° (NW) 01:13:41 435.910
AIST 2D 23 Aug 01:08:43 01:12:15 61° 286° (WNW) 01:15:46 435.315
EO-79 23 Aug 01:12:08 01:16:16 53° 100° (E) 01:20:23 145.935-145.965
QB50P2 23 Aug 01:12:15 01:16:26 58° 101° (E) 01:20:35 145.880/145.840
50 SAT 23 Aug 01:22:18 01:25:41 64° 74° (ENE) 01:29:06 437.505
TIGRISAT 23 Aug 01:24:37 01:26:20 12° 304° (NW) 01:28:03 435.000
BUGSAT 1 23 Aug 01:31:05 01:34:06 20° 93° (E) 01:37:08 437.445
